Location: Heidgraben
(53.7081°N, 9.6576°E)
Time: 10:50:52
(UTC+00:00)

Cosmos 1110 Rocket - Pass Details

Date: 05 July 2020
Orbit: 752 x 782 km, 74.0° (Epoch: 05 August)

Event Time Altitude Azimuth Distance (km) Brightness Sun altitude
Rises 23:27:55 0° 333° (NNW) 3,250 8.4 -13.6°
Reaches altitude 10° 23:30:18 10° 335° (NNW) 2,324 7.6 -13.6°
Maximum altitude 23:35:36 77° 62° (ENE) 801 4.1 -13.6°
Enters shadow 23:40:15 14° 148° (SSE) 2,080 5.8 -13.6°
